Weather History for Miami, FL

Change the Weather History Date:

Thursday, May 2, 2013

  Actual Average Record
Temperature  
Mean Temperature 76 °F 78 °F  
Max Temperature 82 °F 85 °F 93 °F (1937)
Min Temperature 69 °F 71 °F 58 °F (1940)
Degree Days  
Heating Degree Days 0 0  
Month to date heating degree days 0 0  
Since 1 July heating degree days 70 128  
Cooling Degree Days 11 13  
Month to date cooling degree days 24 26  
Year to date cooling degree days 1031 919  
Growing Degree Days 26 (Base 50)    
Moisture  
Dew Point 69 °F    
Average Humidity 82    
Maximum Humidity 97    
Minimum Humidity 67    
Precipitation  
Precipitation 1.08 in 0.10 in 3.18 in (1947)
Month to date precipitation 2.14 0.20  
Year to date precipitation 10.48 10.21  
Snow  
Snow 0.00 in - - ()
Month to date snowfall 0.0  
Since 1 July snowfall 0.0  
Snow Depth 0.00 in    
Sea Level Pressure  
Sea Level Pressure 29.88 in    
Wind  
Wind Speed 7 mph (SE)    
Max Wind Speed 20 mph    
Max Gust Speed 26 mph    
Visibility 9 miles    
Events Rain , Thunderstorm    
T = Trace of Precipitation, MM = Missing Value Source: NWS Daily Summary

Daily Weather History Graph

Daily Weather History Graph

Search for Another Location

Airport:

Trip Planner

Search our weather history database for the weather conditions in past years. The results will help you decide how hot, cold, wet, or windy it might be!

Date:

Astronomy

May. 02, 2013 Rise Set
Actual Time 6:43 AM EDT 7:53 PM EDT
Civil Twilight 6:19 AM EDT 8:17 PM EDT
Nautical Twilight 5:50 AM EDT 8:46 PM EDT
Astronomical Twilight 5:20 AM EDT 9:16 PM EDT
Moon 1:46 AM EDT (5/2) 1:22 PM EDT (5/2)
Length of Visible Light 13h 58m
Length of Day
13h 09m
Waning Gibbous, 48% of the Moon is Illuminated
May 2
Waning Gibbous
May 9
New
May 18
First Quarter
May 25
Full
May 31
Last Quarter

Hourly Weather History & Observations

Time (EDT) Temp. Heat Index Dew Point Humidity Pressure Visibility Wind Dir Wind Speed Gust Speed Precip Events Conditions
12:53 AM 73.0 °F - 69.1 °F 87% 29.95 in 10.0 mi ENE 3.5 mph - N/A   Mostly Cloudy
1:53 AM 73.0 °F - 70.0 °F 90% 29.92 in 10.0 mi ESE 5.8 mph - N/A   Mostly Cloudy
2:53 AM 75.0 °F - 71.1 °F 87% 29.92 in 10.0 mi ESE 4.6 mph - N/A   Mostly Cloudy
3:53 AM 75.0 °F - 70.0 °F 84% 29.92 in 10.0 mi Calm Calm - N/A   Mostly Cloudy
4:53 AM 75.0 °F - 71.1 °F 87% 29.90 in 10.0 mi SE 6.9 mph - N/A   Mostly Cloudy
5:53 AM 73.9 °F - 70.0 °F 87% 29.91 in 10.0 mi Variable 4.6 mph - N/A   Mostly Cloudy
6:53 AM 75.0 °F - 70.0 °F 84% 29.91 in 10.0 mi Variable 3.5 mph - N/A   Overcast
7:53 AM 75.0 °F - 71.1 °F 87% 29.92 in 10.0 mi SSE 3.5 mph - N/A   Overcast
8:53 AM 75.9 °F - 71.1 °F 85% 29.92 in 10.0 mi ESE 6.9 mph - 0.00 in   Overcast
9:53 AM 80.1 °F 83.6 °F 71.1 °F 74% 29.93 in 10.0 mi ESE 11.5 mph 16.1 mph N/A   Overcast
10:27 AM 80.6 °F 83.9 °F 69.8 °F 70% 29.92 in 10.0 mi ESE 13.8 mph 20.7 mph N/A   Overcast
10:53 AM 79.0 °F - 69.1 °F 72% 29.93 in 10.0 mi SE 12.7 mph 19.6 mph N/A   Overcast
11:18 AM 78.8 °F - 69.8 °F 74% 29.92 in 10.0 mi SSE 9.2 mph - N/A   Overcast
11:53 AM 80.1 °F 82.7 °F 68.0 °F 67% 29.91 in 10.0 mi SSE 9.2 mph - N/A   Overcast
12:53 PM 80.1 °F 82.9 °F 69.1 °F 69% 29.89 in 10.0 mi SE 10.4 mph - N/A   Overcast
1:43 PM 78.8 °F - 71.6 °F 78% 29.88 in 10.0 mi SSE 11.5 mph - N/A   Overcast
1:53 PM 79.0 °F - 71.1 °F 77% 29.88 in 10.0 mi SE 16.1 mph 24.2 mph N/A   Overcast
2:27 PM 77.0 °F - 71.6 °F 83% 29.87 in 10.0 mi SSE 8.1 mph 16.1 mph 0.03 in   Overcast
2:53 PM 78.1 °F - 71.1 °F 79% 29.86 in 10.0 mi SSE 10.4 mph 17.3 mph 0.03 in   Overcast
3:35 PM 69.8 °F - 66.2 °F 88% 29.85 in 3.0 mi WNW 8.1 mph - 0.09 in Rain Light Rain
3:53 PM 69.1 °F - 68.0 °F 96% 29.85 in 3.0 mi West 11.5 mph 17.3 mph 0.27 in Rain Heavy Rain
3:57 PM 69.8 °F - 68.0 °F 94% 29.86 in 3.0 mi West 11.5 mph 18.4 mph 0.16 in Rain , Thunderstorm Heavy Thunderstorms and Rain
4:27 PM 69.8 °F - 68.0 °F 94% 29.86 in 3.0 mi NW 6.9 mph 16.1 mph 0.62 in Rain Rain
4:34 PM 69.8 °F - 68.0 °F 94% 29.86 in 3.0 mi NNW 10.4 mph 16.1 mph 0.64 in Rain Rain
4:53 PM 70.0 °F - 68.0 °F 93% 29.86 in 5.0 mi NNW 4.6 mph 16.1 mph 0.69 in Rain Rain
5:35 PM 69.8 °F - 68.0 °F 94% 29.85 in 10.0 mi Variable 4.6 mph - 0.08 in Rain Light Rain
5:53 PM 70.0 °F - 68.0 °F 93% 29.84 in 10.0 mi NNE 6.9 mph - 0.09 in Rain Light Rain
6:53 PM 69.1 °F - 66.9 °F 93% 29.82 in 10.0 mi NE 9.2 mph - 0.00 in   Overcast
7:53 PM 72.0 °F - 68.0 °F 87% 29.82 in 10.0 mi East 5.8 mph - 0.00 in   Mostly Cloudy
8:53 PM 72.0 °F - 68.0 °F 87% 29.84 in 10.0 mi Calm Calm - N/A   Mostly Cloudy
9:53 PM 72.0 °F - 68.0 °F 87% 29.85 in 10.0 mi NW 3.5 mph - N/A   Mostly Cloudy
10:53 PM 70.0 °F - 68.0 °F 93% 29.84 in 10.0 mi WNW 3.5 mph - N/A   Overcast
11:53 PM 70.0 °F - 68.0 °F 93% 29.84 in 7.0 mi West 4.6 mph - N/A   Overcast